This is the latest recevied weather packets stored in our database for station/object JA0BES-13. If no packets are shown the sender has not sent any weather packets the latest 10 day(s).
| Time | Temp. | Humidity | Pressure | Rain* | Wind** | Luminosity | Snow |
|---|---|---|---|---|---|---|---|
| 1777639313 | 11.67° C | 100% | 994.9 hPa | 19.56 mm | - | - | - |
| 1777638713 | 11.67° C | 100% | 994.9 hPa | 19.56 mm | - | - | - |
| 1777638112 | 11.67° C | 100% | 994.6 hPa | 19.56 mm | - | - | - |
| 1777637512 | 11.67° C | 100% | 994.6 hPa | 19.56 mm | - | - | - |
| 1777636912 | 11.67° C | 100% | 994.4 hPa | 19.56 mm | - | - | - |
| 1777636312 | 12.22° C | 100% | 994.6 hPa | 19.56 mm | - | - | - |
| 1777635711 | 12.22° C | 100% | 994.5 hPa | 19.56 mm | - | - | - |
| 1777635111 | 12.22° C | 100% | 994.4 hPa | 19.56 mm | - | - | - |
| 1777634510 | 12.22° C | 100% | 994.4 hPa | 19.56 mm | - | - | - |
| 1777633910 | 12.22° C | 100% | 994.3 hPa | 19.56 mm | - | - | - |
| 1777633310 | 12.22° C | 100% | 994.1 hPa | 19.56 mm | - | - | - |
| 1777632709 | 12.78° C | 100% | 993.9 hPa | 19.56 mm | - | - | - |
| 1777632109 | 12.78° C | 100% | 994 hPa | 19.56 mm | - | - | - |
| 1777631509 | 12.78° C | 100% | 993.8 hPa | 19.56 mm | - | - | - |
| 1777630908 | 12.78° C | 100% | 993.5 hPa | 19.56 mm | - | - | - |
| 1777630308 | 12.78° C | 100% | 993.5 hPa | 19.56 mm | - | - | - |
| 1777629707 | 13.33° C | 100% | 993.1 hPa | 19.56 mm | - | - | - |
| 1777629107 | 13.33° C | 100% | 992.7 hPa | 19.56 mm | - | - | - |
| 1777628507 | 13.89° C | 100% | 992.8 hPa | 19.05 mm | - | - | - |
| 1777627907 | 13.89° C | 100% | 992.6 hPa | 18.8 mm | - | - | - |
| 1777627306 | 13.89° C | 100% | 992.4 hPa | 18.8 mm | - | - | - |
| 1777626706 | 13.89° C | 100% | 992.7 hPa | 18.29 mm | - | - | - |
| 1777626105 | 14.44° C | 100% | 992.7 hPa | 16 mm | - | - | - |
| 1777625505 | 14.44° C | 100% | 992.3 hPa | 14.99 mm | - | - | - |
| 1777624905 | 15° C | 100% | 992.1 hPa | 14.22 mm | - | - | - |
* Rain since midnight (hover to see other rain measurements)
** Current wind speed in m/s (hover to see current wind gust speed)